Location: Robert Brownlee Observatory
(34.2308°N, 117.2089°W)
Time: 16:51:12
(UTC-07:00)

Cosmos 1943 - Visible Passes

Search period start: 24 October 2014 00:00
Search period end: 02 November 2014 23:00
Orbit: 836 x 849 km, 71.0° (Epoch: 23 October)

Date Brightness Start Highest point End Pass type
(mag) Time Alt. Az. Time Alt. Az. Time Alt. Az.
24 Oct 5.7 06:27:55 10° NNE 06:31:56 20° ENE 06:35:56 10° ESE visible
25 Oct 5.7 06:13:10 10° NNE 06:17:03 19° ENE 06:20:55 10° E visible
26 Oct 5.7 05:58:25 10° NNE 06:02:09 18° ENE 06:05:53 10° E visible
27 Oct 5.8 05:43:42 10° NNE 05:47:16 17° ENE 05:50:50 10° E visible
28 Oct 5.8 05:28:58 10° NNE 05:32:23 16° NE 05:35:46 10° E visible
28 Oct 5.1 20:14:49 10° S 20:16:02 17° S 20:16:02 17° S visible
29 Oct 5.8 05:14:16 10° NNE 05:17:29 15° NE 05:20:42 10° E visible
29 Oct 4.2 20:00:01 10° S 20:03:02 32° S 20:03:02 32° S visible
30 Oct 5.9 04:59:34 10° NNE 05:02:36 15° NE 05:05:36 10° E visible
30 Oct 3.2 06:41:35 10° NNW 06:47:11 71° WSW 06:52:46 10° SSE visible
30 Oct 3.3 19:45:13 10° S 19:50:03 50° SE 19:50:03 50° SE visible
30 Oct 5.9 21:31:05 10° WSW 21:31:59 13° W 21:31:59 13° W visible
31 Oct 5.9 04:44:54 10° NNE 04:47:42 14° NE 04:50:29 10° E visible
31 Oct 3.2 06:26:43 10° NNW 06:32:20 75° WSW 06:37:57 10° SSE visible
31 Oct 3.3 19:30:25 10° S 19:35:47 49° ESE 19:37:01 42° ENE visible
31 Oct 5.5 21:16:04 10° WSW 21:18:57 19° WNW 21:18:57 19° WNW visible
01 Nov 5.9 04:30:15 10° NNE 04:32:48 13° NE 04:35:21 10° E visible
01 Nov 3.1 06:11:51 10° NNW 06:17:29 79° WSW 06:23:06 10° SSE visible
01 Nov 3.4 19:15:37 10° S 19:20:57 47° ESE 19:23:54 25° NE visible
01 Nov 5.3 21:01:03 10° WSW 21:05:12 21° WNW 21:05:49 21° NW visible
02 Nov 5.9 03:15:38 10° NNE 03:17:54 12° NE 03:20:10 10° ENE visible
02 Nov 3.1 04:57:00 10° NNW 05:02:38 84° WSW 05:08:16 10° SSE visible
02 Nov 3.5 18:00:50 10° S 18:06:07 44° ESE 18:10:39 14° NE visible
02 Nov 5.3 19:46:03 10° WSW 19:50:19 22° WNW 19:52:33 18° NNW visible
